TimeIST,TemperatureF,Dew PointF,Humidity,Sea Level PressureIn,VisibilityMPH,Wind Direction,Wind SpeedMPH,Gust SpeedMPH,PrecipitationIn,Events,Conditions,WindDirDegrees,DateUTC
12:10 AM,84.2,77.0,79,29.83,3.7,SSE,4.6,-,N/A,,Scattered Clouds,160,2013-04-03 18:40:00
12:40 AM,84.2,77.0,79,29.83,3.7,SSE,4.6,-,N/A,,Partly Cloudy,160,2013-04-03 19:10:00
1:10 AM,82.4,77.0,84,29.83,3.7,South,3.5,-,N/A,,Partly Cloudy,180,2013-04-03 19:40:00
1:40 AM,82.4,77.0,84,29.80,3.7,South,3.5,-,N/A,,Scattered Clouds,190,2013-04-03 20:10:00
2:10 AM,82.4,77.0,84,29.80,3.7,South,4.6,-,N/A,,Scattered Clouds,190,2013-04-03 20:40:00
2:30 AM,83,76,73,29.79,2,South,4.6,,,,Haze,180,2013-04-03 21:00:00
2:40 AM,82.4,75.2,79,29.80,3.7,South,4.6,-,N/A,,Scattered Clouds,180,2013-04-03 21:10:00
3:10 AM,82.4,75.2,79,29.80,3.7,South,2.3,-,N/A,,Partly Cloudy,180,2013-04-03 21:40:00
3:40 AM,82.4,75.2,79,29.80,3.7,South,2.3,-,N/A,,Partly Cloudy,180,2013-04-03 22:10:00
4:10 AM,82.4,75.2,79,29.80,3.7,Calm,Calm,-,N/A,,Partly Cloudy,0,2013-04-03 22:40:00
4:40 AM,82.4,75.2,79,29.80,3.7,Calm,Calm,-,N/A,,Partly Cloudy,0,2013-04-03 23:10:00
5:30 AM,81,75,77,29.79,2,South,2.3,,,,Haze,180,2013-04-04 00:00:00
5:40 AM,80.6,75.2,84,29.80,2.5,SSW,2.3,-,N/A,,Haze,200,2013-04-04 00:10:00
7:10 AM,84.2,75.2,74,29.83,1.9,Calm,Calm,-,N/A,,Haze,0,2013-04-04 01:40:00
7:40 AM,86.0,75.2,70,29.83,1.9,SSW,2.3,-,N/A,,Haze,210,2013-04-04 02:10:00
8:10 AM,87.8,75.2,66,29.83,2.5,Calm,Calm,-,N/A,,Haze,0,2013-04-04 02:40:00
8:30 AM,88,72,50,29.85,2,WSW,3.5,,,,Haze,250,2013-04-04 03:00:00
8:40 AM,89.6,73.4,59,29.86,2.5,WSW,3.5,-,N/A,,Haze,240,2013-04-04 03:10:00
9:40 AM,93.2,71.6,49,29.86,3.7,SW,3.5,-,N/A,,Partly Cloudy,230,2013-04-04 04:10:00
10:10 AM,93.2,71.6,49,29.86,3.7,WSW,5.8,-,N/A,,Partly Cloudy,250,2013-04-04 04:40:00
10:40 AM,95.0,71.6,47,29.86,3.7,WSW,3.5,-,N/A,,Partly Cloudy,240,2013-04-04 05:10:00
11:10 AM,96.8,71.6,44,29.83,3.7,West,4.6,-,N/A,,Partly Cloudy,260,2013-04-04 05:40:00
11:30 AM,99,69,29,29.82,2,SW,5.8,,,,Haze,230,2013-04-04 06:00:00
11:40 AM,98.6,71.6,42,29.83,3.7,WSW,5.8,-,N/A,,Partly Cloudy,240,2013-04-04 06:10:00
12:10 PM,98.6,71.6,42,29.80,3.7,SW,4.6,-,N/A,,Partly Cloudy,230,2013-04-04 06:40:00
12:40 PM,100.4,71.6,39,29.77,4.3,WSW,4.6,-,N/A,,Partly Cloudy,240,2013-04-04 07:10:00
1:10 PM,102.2,69.8,35,29.74,5.0,WSW,3.5,-,N/A,,Partly Cloudy,250,2013-04-04 07:40:00
1:40 PM,102.2,69.8,35,29.74,5.0,WNW,6.9,-,N/A,,Partly Cloudy,290,2013-04-04 08:10:00
2:10 PM,102.2,69.8,35,29.71,5.0,SE,4.6,-,N/A,,Scattered Clouds,130,2013-04-04 08:40:00
2:30 PM,102,76,35,29.72,2,West,3.5,,,,Haze,270,2013-04-04 09:00:00
2:40 PM,102.2,69.8,35,29.68,6.2,SSW,4.6,-,N/A,,Scattered Clouds,210,2013-04-04 09:10:00
3:10 PM,100.4,69.8,37,29.68,6.2,South,2.3,-,N/A,,Scattered Clouds,170,2013-04-04 09:40:00
3:40 PM,98.6,71.6,42,29.65,6.2,South,4.6,-,N/A,,Scattered Clouds,180,2013-04-04 10:10:00
4:10 PM,100.4,69.8,37,29.65,6.2,ESE,3.5,-,N/A,,Scattered Clouds,120,2013-04-04 10:40:00
4:40 PM,100.4,69.8,37,29.65,6.2,NNE,3.5,-,N/A,,Scattered Clouds,20,2013-04-04 11:10:00
5:10 PM,98.6,69.8,39,29.65,6.2,South,2.3,-,N/A,,Partly Cloudy,180,2013-04-04 11:40:00
5:30 PM,103,60,16,29.65,2,SSE,4.6,,,,Haze,160,2013-04-04 12:00:00
5:40 PM,100.4,68.0,35,-9999,5.0,SSE,11.5,-,N/A,,Partly Cloudy,150,2013-04-04 12:10:00
6:10 PM,100.4,69.8,37,29.68,5.0,SSE,13.8,-,N/A,,Partly Cloudy,160,2013-04-04 12:40:00
6:40 PM,95.0,68.0,41,29.68,3.7,SSE,12.7,-,N/A,,Partly Cloudy,160,2013-04-04 13:10:00
7:10 PM,93.2,71.6,49,29.71,3.7,SSE,11.5,-,N/A,,Partly Cloudy,150,2013-04-04 13:40:00
7:40 PM,93.2,71.6,49,29.74,3.7,SSE,10.4,-,N/A,,Partly Cloudy,150,2013-04-04 14:10:00
8:10 PM,91.4,71.6,52,29.77,3.7,SSE,12.7,-,N/A,,Unknown,160,2013-04-04 14:40:00
8:40 PM,89.6,73.4,59,29.77,3.7,South,6.9,-,N/A,,Unknown,170,2013-04-04 15:10:00
9:10 PM,87.8,73.4,62,29.77,3.7,South,9.2,-,N/A,,Unknown,170,2013-04-04 15:40:00
9:40 PM,87.8,73.4,62,29.80,3.7,South,9.2,-,N/A,,Unknown,180,2013-04-04 16:10:00
10:10 PM,87.8,73.4,62,29.80,3.7,South,6.9,-,N/A,,Unknown,170,2013-04-04 16:40:00
10:40 PM,87.8,73.4,62,29.80,3.7,SSE,5.8,-,N/A,,Partly Cloudy,160,2013-04-04 17:10:00
11:10 PM,86.0,73.4,66,29.80,3.7,South,4.6,-,N/A,,Partly Cloudy,190,2013-04-04 17:40:00
11:30 PM,86,75,62,29.80,2,SW,3.5,,,,Haze,230,2013-04-04 18:00:00
11:40 PM,86.0,73.4,66,29.80,3.7,SSW,3.5,-,N/A,,Partly Cloudy,200,2013-04-04 18:10:00